Jerez de la Frontera, Spain

4:27 PM CET on March 23, 2017 (GMT +0100)
Jerez

Weather History for LEJR - March, 2012

Change the Weather History Date:

Monday, March 5, 2012

  Actual Average Record
Temperature  
Mean Temperature 54 °F -  
Max Temperature 70 °F 68 °F 87 °F (1998)
Min Temperature 39 °F 46 °F 33 °F (2005)
Degree Days  
Heating Degree Days 10    
Growing Degree Days 4 (Base 50)    
Moisture  
Dew Point 46 °F    
Average Humidity 75    
Maximum Humidity 100    
Minimum Humidity 46    
Precipitation  
Precipitation 0.00 in 0.07 in - ()
Sea Level Pressure  
Sea Level Pressure 30.29 in    
Wind  
Wind Speed 3 mph ()    
Max Wind Speed 10 mph    
Max Gust Speed -    
Visibility 4.3 miles    
Events Fog    
Averages and records for this station are not official NWS values.
T = Trace of Precipitation, MM = Missing Value Source: Averaged Metar Reports

Daily Weather History Graph

Daily Weather History Graph

Search for Another Location

Airport or City:

Trip Planner

Search our weather history database for the weather conditions in past years. The results will help you decide how hot, cold, wet, or windy it might be!

Date:

Astronomy

Mar. 05, 2012 Rise Set
Actual Time 7:49 AM CET 7:22 PM CET
Civil Twilight 7:23 AM CET 7:48 PM CET
Nautical Twilight 6:53 AM CET 8:18 PM CET
Astronomical Twilight 6:23 AM CET 8:48 PM CET
Moon 4:29 PM CET (3/5) 5:35 AM CET (3/5)
Length of Visible Light 12h 25m
Length of Day
11h 33m
Waxing Gibbous, 89% of the Moon is Illuminated
Mar 5
Waxing Gibbous
Mar 8
Full
Mar 15
Last Quarter
Mar 22
New
Mar 30
First Quarter

Hourly Weather History & Observations

Time (CET) Temp. Dew Point Humidity Pressure Visibility Wind Dir Wind Speed Gust Speed Precip Events Conditions
1:00 AM 49 °F 48 °F 94% 30.36 in - NE 2.3 mph - -  
5:00 AM 42.8 °F 42.8 °F 100% 30.30 in 0.9 mi Calm Calm - N/A   Mist
5:30 AM 41.0 °F 41.0 °F 100% 30.30 in 0.3 mi Calm Calm - N/A Fog Fog
6:00 AM 41.0 °F 41.0 °F 100% 30.30 in 0.3 mi Variable 1.2 mph - N/A Fog Fog
6:30 AM 41.0 °F 41.0 °F 100% 30.30 in 0.3 mi Variable 1.2 mph - N/A Fog Fog
7:00 AM 41 °F 41 °F 100% 30.32 in 1 mi Calm Calm - -   Mist
7:00 AM 41.0 °F 41.0 °F 100% 30.30 in 0.9 mi Calm Calm - N/A   Mist
7:30 AM 39.2 °F 39.2 °F 100% 30.30 in 0.9 mi Calm Calm - N/A   Partly Cloudy
8:00 AM 39.2 °F 39.2 °F 100% 30.30 in 1.9 mi Variable 1.2 mph - N/A   Partly Cloudy
8:30 AM 39.2 °F 39.2 °F 100% 30.33 in 1.9 mi Variable 2.3 mph - N/A   Partly Cloudy
9:00 AM 41.0 °F 41.0 °F 100% 30.33 in 3.1 mi Variable 1.2 mph - N/A   Partly Cloudy
9:30 AM 44.6 °F 44.6 °F 100% 30.33 in 5.0 mi Variable 1.2 mph - N/A   Unknown
10:00 AM 48.2 °F 48.2 °F 100% 30.33 in 5.0 mi Variable 1.2 mph - N/A   Unknown
10:30 AM 53.6 °F 50.0 °F 88% 30.33 in - NNW 6.9 mph - N/A   Clear
11:00 AM 55.4 °F 50.0 °F 82% 30.33 in - NNW 3.5 mph - N/A   Clear
11:30 AM 57.2 °F 48.2 °F 72% 30.33 in - North 5.8 mph - N/A   Clear
12:00 PM 59.0 °F 48.2 °F 67% 30.33 in - NNE 4.6 mph - N/A   Clear
12:30 PM 60.8 °F 48.2 °F 63% 30.33 in 6.2 mi NNW 5.8 mph - N/A   Partly Cloudy
1:00 PM 65 °F 50 °F 48% 30.33 in 12 mi NNW 5.8 mph - -   Scattered Clouds
1:00 PM 62.6 °F 48.2 °F 59% 30.33 in 6.2 mi NNW 4.6 mph - N/A   Partly Cloudy
1:30 PM 64.4 °F 48.2 °F 56% 30.30 in 6.2 mi NW 6.9 mph - N/A   Partly Cloudy
2:00 PM 64.4 °F 46.4 °F 52% 30.27 in 6.2 mi NW 5.8 mph - N/A   Partly Cloudy
2:30 PM 66.2 °F 48.2 °F 52% 30.27 in - North 5.8 mph - N/A   Clear
3:00 PM 68.0 °F 46.4 °F 46% 30.27 in - NW 4.6 mph - N/A   Clear
3:30 PM 68.0 °F 46.4 °F 46% 30.24 in - North 6.9 mph - N/A   Clear
4:00 PM 68.0 °F 46.4 °F 46% 30.24 in - Variable 4.6 mph - N/A   Clear
4:30 PM 68.0 °F 48.2 °F 49% 30.24 in - WNW 8.1 mph - N/A   Clear
5:00 PM 68.0 °F 48.2 °F 49% 30.24 in - West 10.4 mph - N/A   Clear
5:30 PM 66.2 °F 48.2 °F 52% 30.24 in - WNW 8.1 mph - N/A   Clear
6:00 PM 66.2 °F 48.2 °F 52% 30.24 in - West 6.9 mph - N/A   Clear
6:30 PM 64.4 °F 48.2 °F 56% 30.24 in - West 8.1 mph - N/A   Clear
7:00 PM 64 °F 51 °F 52% 30.26 in 19 mi West 10.4 mph - -  
7:00 PM 62.6 °F 50.0 °F 63% 30.24 in - West 9.2 mph - N/A   Clear
7:30 PM 59.0 °F 48.2 °F 67% 30.24 in - WSW 8.1 mph - N/A   Clear
8:00 PM 59.0 °F 48.2 °F 67% 30.24 in - West 5.8 mph - N/A   Clear
8:30 PM 57.2 °F 50.0 °F 77% 30.27 in - WSW 3.5 mph - N/A   Clear
9:00 PM 55.4 °F 50.0 °F 82% 30.27 in - SSW 3.5 mph - N/A   Clear
9:30 PM 53.6 °F 48.2 °F 82% 30.27 in - Variable 2.3 mph - N/A   Clear
10:00 PM 51.8 °F 48.2 °F 88% 30.27 in - South 3.5 mph - N/A   Clear
10:30 PM 51.8 °F 48.2 °F 88% 30.30 in - Variable 1.2 mph - N/A   Clear
11:00 PM 50.0 °F 46.4 °F 87% 30.27 in - Calm Calm - N/A   Clear